Regional Weather Roundup
Issued by NWS

Home | Current Version | Previous Version | Text Only | Print | Product List | Glossary On
Versions: 1 2 3 4 5 6 7 8 9 10 11 12 13 14 15 16 17 18 19 20 21 22 23 24 25 26 27 28 29 30 31 32 33 34 35 36 37 38 39 40 41 42 43 44 45 46 47 48 49 50
000
ASUS45 KABQ 180710
RWRNM
NEW MEXICO REGIONAL WEATHER ROUNDUP
NATIONAL WEATHER SERVICE ALBUQUERQUE NM
1200 AM MST MON NOV 18 2019

NOTE: "FAIR" MEANS FEW OR NO CLOUDS BELOW 12,000 FEET AGL WITH NO
       SIGNIFICANT WEATHER OR OBSTRUCTIONS TO VISION.

      THIS PRODUCT IS RELEASED AS TWO VERSIONS.  ONE VERSION NEAR
      THE TOP OF THE HOUR CONTAINING PRELIMINARY DATA FROM ALBUQUERQUE
      AND OTHER STATIONS.  A FINAL VERSION WITH ADDITIONAL DATA IS
      ISSUED ABOUT 10 MINUTES AFTER THE HOUR.

NMZ201-203-204-210>218-180800-
NORTHWEST PLATEAU/NORTHCENTRAL MOUNTAINS

CITY           SKY/WX    TMP DP  RH WIND       PRES   REMARKS
FARMINGTON     FAIR      32   7  35 CALM      30.16F
LOS ALAMOS     FAIR      46  14  27 SW5       30.20F
SANTA FE       FAIR      34  15  46 CALM      30.17S
TAOS           FAIR      24  11  57 N6        30.20F WCI  17
ANGEL FIRE     FAIR      18  11  76 CALM      30.20F

$$
NMZ202-205>209-241-402-403-180800-
WESTCENTRAL MOUNTAINS/SOUTHWEST MOUNTAINS

CITY           SKY/WX    TMP DP  RH WIND       PRES   REMARKS
GALLUP         FAIR      33   7  33 CALM      30.25S
GRANTS         FAIR      36  10  34 W12       30.25F WCI  27
SILVER CITY    FAIR      39  20  46 N9        30.16F WCI  33

$$
NMZ407-409-411-412-180800-
SOUTHERN DESERTS

CITY           SKY/WX    TMP DP  RH WIND       PRES   REMARKS
DEMING         FAIR      38  19  46 SW5       30.13F WCI  34
LAS CRUCES     FAIR      40  22  48 NW5       30.15F
HOLLOMAN AFB   FAIR      39  22  50 E5        30.12F
ALAMOGORDO     FAIR      39  19  45 NE3       30.13F
T OR C         FAIR      48  23  37 VRB3      30.13F

$$
NMZ219>223-180800-
CENTRAL VALLEYS/CENTRAL HIGHLANDS

CITY           SKY/WX    TMP DP  RH WIND       PRES   REMARKS
ALBUQUERQUE    FAIR      44  19  36 W6        30.16F
DOUBLE EAGLE   FAIR      33  18  54 SW5       30.17F WCI  29
MORIARTY ARPT  FAIR      41  15  35 NW7       30.16F
CLINES CORNERS FAIR      42  11  28 W16       30.17S
BELEN          FAIR      37  18  45 NW6       30.16F WCI  32
SOCORRO        FAIR      39  17  40 NW3       30.16S

$$
NMZ224>226-239-240-180800-
SOUTHCENTRAL MOUNTAINS

CITY           SKY/WX    TMP DP  RH WIND       PRES   REMARKS
RUIDOSO        FAIR      50  14  23 NW10G18   30.17F

$$
NMZ227>231-180800-
NORTHEAST HIGHLANDS/NORTHEAST PLAINS

CITY           SKY/WX    TMP DP  RH WIND       PRES   REMARKS
LAS VEGAS      FAIR      38  16  40 N8        30.10F WCI  32
RATON          FAIR      28  23  81 NE7       30.07F WCI  21
CLAYTON        FAIR      40  30  67 W13       30.01F WCI  32

$$
NMZ232>237-180800-
EASTCENTRAL PLAINS

CITY           SKY/WX    TMP DP  RH WIND       PRES   REMARKS
SANTA ROSA     FAIR      34  28  76 E7        30.04F WCI  28
TUCUMCARI      FAIR      44  31  60 SW8       30.01F
CANNON AFB     FAIR      38  31  75 SW8       30.07F WCI  32
CLOVIS AIRPORT FAIR      36  31  82 W9        30.07F WCI  29

$$
NMZ028-029-033-238-180800-
SOUTHEAST PLAINS

CITY           SKY/WX    TMP DP  RH WIND       PRES   REMARKS
ROSWELL        FAIR      42  34  73 CALM      30.05F
ARTESIA        FAIR      41  32  70 CALM      30.08S
CARLSBAD       FAIR      40  31  70 S7        30.05F
HOBBS          FAIR      41  32  70 SW6       30.07F


$$



USA.gov is the U.S. government's official web portal to all federal, state and local government web resources and services.